Back to catalog

STARLINK-37417

AliveCommunicationsSSO
NORAD 68770·PAYLOAD·🇺🇸 United States

Launched Apr 19, 2026 from Vandenberg Space Force Base

Loading…

Next Passes (next 24 hours)

TLE

FreshSource: CelesTrak SupGP

Epoch: Sep 14, 2026, 22:48 UTC

1 68770C 26086E   26257.95048611  .00021324  00000+0  66203-3 0  2574
2 68770  97.2839 293.4213 0001018  93.0980 208.7457 15.33425410    13

Track STARLINK-37417 in real time with AllMySat

Download on the App Store